Date String (YYYY-MM-DD hh:mm:ss) UTC,Instrument flags,Ambient pressure (hPa),Sample flow (lpm),Bypass flow (lpm),Sample temperature (°C),Ambient temperature (°C),ASC tube jacket temperature (°C),LED temperature (°C),Box temperature (°C),Sample RH (%),Span deviation,Mass concentration (μg/m³),Mass concentration (μg/m³),Mass concentration (μg/m³)
DateTimeUTC,F1_M11,P_M11,Q1_M11,Q2_M11,T1_M11,T2_M11,T3_M11,T4_M11,T5_M11,U1_M11,ZSPAN_M11,X0_M11,X2_M11,X1_M11
2022-12-13 03:00:00,,0811.4,4.98,0.00,22.5,20.8,00.0,31.3,24.3,12.5,-000.8,0017.93,0005.38,0004.11
2022-12-13 03:01:00,,0811.5,5.00,0.00,22.5,20.8,00.0,31.3,24.2,12.5,-001.0,0017.57,0005.34,0004.11
2022-12-13 03:02:00,,0811.5,5.00,0.00,22.4,20.7,00.0,31.3,24.2,12.6,-001.1,0017.41,0005.34,0004.10
2022-12-13 03:03:00,,0811.4,4.99,0.00,22.4,20.7,00.0,31.3,24.2,12.6,-001.2,0016.78,0005.33,0004.09
2022-12-13 03:04:00,,0811.4,5.01,0.00,22.4,20.6,00.0,31.3,24.1,12.6,-001.3,0017.49,0005.33,0004.09
2022-12-13 03:05:00,,0811.4,4.98,0.00,22.4,20.6,00.0,31.3,24.1,12.5,-001.1,0017.24,0005.33,0004.09
2022-12-13 03:06:00,,0811.4,5.03,0.00,22.4,20.6,00.0,31.3,24.1,12.5,-001.0,0016.42,0005.31,0004.08
2022-12-13 03:07:00,,0811.4,4.98,0.00,22.4,20.6,00.0,31.3,24.1,12.6,-000.8,0016.10,0005.30,0004.09
2022-12-13 03:08:00,,0811.5,5.03,0.00,22.3,20.6,00.0,31.3,24.1,12.6,-000.0,0016.15,0005.28,0004.10
2022-12-13 03:09:00,,0811.6,4.98,0.00,22.3,20.5,00.0,31.2,24.1,12.5,0000.1,0015.77,0005.30,0004.11
2022-12-13 03:10:00,,0811.6,5.03,0.00,22.3,20.5,00.0,31.2,24.0,12.6,-000.4,0014.52,0005.35,0004.12
2022-12-13 03:11:00,,0811.6,4.99,0.00,22.3,21.1,00.0,31.2,24.2,12.5,-000.7,0014.51,0005.34,0004.13
2022-12-13 03:12:00,,0811.6,4.99,0.00,22.4,22.0,00.0,31.2,24.4,12.5,-000.3,0014.53,0005.32,0004.14
2022-12-13 03:13:00,,0811.6,5.02,0.00,22.5,21.9,00.0,31.2,24.4,12.5,-000.2,0013.97,0005.26,0004.16
2022-12-13 03:14:00,,0811.5,4.99,0.00,22.5,21.7,00.0,31.3,24.4,12.5,-000.2,0013.72,0005.31,0004.20
2022-12-13 03:15:00,,0811.5,4.98,0.00,22.5,21.5,00.0,31.3,24.3,12.5,-000.2,0012.58,0005.33,0004.23
2022-12-13 03:16:00,,0811.5,5.03,0.00,22.5,21.3,00.0,31.3,24.3,12.5,-000.6,0012.61,0005.35,0004.26
2022-12-13 03:17:00,,0811.6,4.99,0.00,22.5,21.1,00.0,31.3,24.3,12.5,-000.8,0013.36,0005.38,0004.30
2022-12-13 03:18:00,,0811.6,4.99,0.00,22.4,21.0,00.0,31.3,24.2,12.5,-000.9,0013.31,0005.39,0004.32
2022-12-13 03:19:00,,0811.5,5.02,0.00,22.4,20.9,00.0,31.3,24.2,12.5,-001.2,0013.04,0005.44,0004.34
2022-12-13 03:20:00,,0811.6,4.98,0.00,22.4,20.8,00.0,31.3,24.2,12.5,-001.5,0012.73,0005.48,0004.37
2022-12-13 03:21:00,,0811.5,5.02,0.00,22.4,20.8,00.0,31.3,24.2,12.5,-001.0,0012.65,0005.51,0004.41
2022-12-13 03:22:00,,0811.5,4.99,0.00,22.4,20.7,00.0,31.3,24.1,12.6,-000.9,0013.07,0005.60,0004.46
2022-12-13 03:23:00,,0811.6,5.00,0.00,22.4,20.7,00.0,31.2,24.1,12.6,-001.4,0013.37,0005.69,0004.50
2022-12-13 03:24:00,,0811.6,5.01,0.00,22.4,21.2,00.0,31.2,24.2,12.6,-001.3,0013.92,0005.72,0004.54
2022-12-13 03:25:00,,0811.6,4.98,0.00,22.5,22.2,00.0,31.2,24.4,12.5,-001.0,0014.13,0005.71,0004.55
2022-12-13 03:26:00,,0811.7,5.00,0.00,22.6,22.4,00.0,31.3,24.6,12.5,-001.2,0014.27,0005.73,0004.56
2022-12-13 03:27:00,,0811.6,5.02,0.00,22.6,22.1,00.0,31.3,24.5,12.4,-001.0,0014.97,0005.76,0004.58
2022-12-13 03:28:00,,0811.7,4.99,0.00,22.6,21.8,00.0,31.3,24.4,12.4,-000.9,0014.77,0005.75,0004.58
2022-12-13 03:29:00,,0811.7,4.99,0.00,22.6,21.4,00.0,31.3,24.4,12.4,-000.9,0013.92,0005.77,0004.59
2022-12-13 03:30:00,,0811.7,5.03,0.00,22.6,21.3,00.0,31.3,24.3,12.4,-001.0,0013.72,0005.76,0004.61
2022-12-13 03:31:00,,0811.7,4.99,0.00,22.5,21.1,00.0,31.3,24.3,12.4,-000.8,0013.92,0005.73,0004.63
2022-12-13 03:32:00,,0811.8,5.01,0.00,22.5,21.0,00.0,31.3,24.3,12.4,-000.7,0014.15,0005.70,0004.63
2022-12-13 03:33:00,,0811.7,4.99,0.00,22.5,20.9,00.0,31.3,24.2,12.4,-000.1,0014.27,0005.63,0004.61
2022-12-13 03:34:00,,0811.7,5.00,0.00,22.5,20.7,00.0,31.3,24.2,12.4,0000.0,0014.07,0005.62,0004.60
2022-12-13 03:35:00,,0811.7,5.01,0.00,22.4,20.7,00.0,31.3,24.2,12.4,-000.1,0013.54,0005.62,0004.58
2022-12-13 03:36:00,,0811.7,4.99,0.00,22.4,20.6,00.0,31.3,24.1,12.5,0000.1,0013.95,0005.67,0004.58
2022-12-13 03:37:00,,0811.7,5.03,0.00,22.4,20.9,00.0,31.3,24.2,12.5,0000.5,0013.55,0005.60,0004.58
2022-12-13 03:38:00,,0811.7,4.99,0.00,22.5,21.8,00.0,31.3,24.4,12.5,0000.6,0013.12,0005.59,0004.58
2022-12-13 03:39:00,,0811.8,4.99,0.00,22.6,22.5,00.0,31.3,24.6,12.4,0000.4,0013.16,0005.59,0004.59
2022-12-13 03:40:00,,0811.8,5.01,0.00,22.6,22.2,00.0,31.3,24.6,12.3,0000.8,0013.51,0005.60,0004.59
2022-12-13 03:41:00,,0811.9,5.02,0.00,22.6,21.9,00.0,31.4,24.5,12.3,0000.9,0013.44,0005.59,0004.59
2022-12-13 03:42:00,,0811.9,4.98,0.00,22.6,21.6,00.0,31.4,24.4,12.3,0001.3,0012.98,0005.57,0004.58
2022-12-13 03:43:00,,0811.8,4.98,0.00,22.6,21.4,00.0,31.4,24.4,12.3,0000.4,0012.99,0005.55,0004.58
2022-12-13 03:44:00,,0811.7,5.01,0.00,22.6,21.3,00.0,31.4,24.4,12.4,0000.2,0012.63,0005.57,0004.59
2022-12-13 03:45:00,,0811.7,5.01,0.00,22.6,21.2,00.0,31.4,24.4,12.4,0000.1,0012.94,0005.55,0004.60
2022-12-13 03:46:00,,0811.7,4.98,0.00,22.6,21.1,00.0,31.4,24.3,12.4,0000.3,0013.66,0005.55,0004.61
2022-12-13 03:47:00,,0811.7,5.01,0.00,22.6,21.0,00.0,31.4,24.3,12.4,0000.0,0013.56,0005.47,0004.61
2022-12-13 03:48:00,,0811.7,4.99,0.00,22.5,21.0,00.0,31.4,24.3,12.4,-000.1,0014.49,0005.52,0004.61
2022-12-13 03:49:00,,0811.7,4.99,0.00,22.5,21.0,00.0,31.4,24.3,12.4,-000.6,0014.46,0005.51,0004.61
2022-12-13 03:50:00,,0811.7,5.02,0.00,22.5,20.9,00.0,31.4,24.3,12.4,-000.3,0014.72,0005.56,0004.61
2022-12-13 03:51:00,,0811.7,4.98,0.00,22.5,20.9,00.0,31.4,24.3,12.4,-000.3,0014.68,0005.61,0004.62
2022-12-13 03:52:00,,0811.7,5.02,0.00,22.5,20.8,00.0,31.4,24.2,12.4,0000.1,0014.72,0005.64,0004.62
2022-12-13 03:53:00,,0811.7,4.98,0.00,22.5,20.8,00.0,31.3,24.2,12.4,0000.3,0015.44,0005.68,0004.62
2022-12-13 03:54:00,,0811.7,5.01,0.00,22.5,20.8,00.0,31.3,24.2,12.4,0000.3,0015.97,0005.69,0004.61
2022-12-13 03:55:00,,0811.7,5.00,0.00,22.4,20.8,00.0,31.3,24.2,12.4,0000.2,0015.94,0005.66,0004.61
2022-12-13 03:56:00,,0811.6,4.98,0.00,22.4,20.8,00.0,31.3,24.2,12.4,0000.5,0015.53,0005.71,0004.61
2022-12-13 03:57:00,,0811.6,5.03,0.00,22.5,21.2,00.0,31.3,24.3,12.4,0000.4,0014.92,0005.74,0004.60
2022-12-13 03:58:00,,0811.6,4.98,0.00,22.5,22.1,00.0,31.3,24.5,12.4,0001.0,0014.37,0005.75,0004.60
2022-12-13 03:59:00,,0811.6,4.98,0.00,22.6,22.5,00.0,31.3,24.6,12.3,0000.5,0013.41,0005.71,0004.60
